This is the latest recevied weather packets stored in our database for station/object N4OOJ-13. If no packets are shown the sender has not sent any weather packets the latest 1 day(s).
| Time | Temp. | Humidity | Pressure | Rain* | Wind** | Luminosity | Snow |
|---|---|---|---|---|---|---|---|
| 1778070029 | 21.11° C | 85% | 1017.9 hPa | 0 mm | - | - | - |
| 1778069429 | 20° C | 89% | 1017.9 hPa | 0 mm | - | - | - |
| 1778066429 | 13.33° C | 99% | 1017.5 hPa | 0 mm | - | - | - |
| 1778065819 | 12.78° C | 99% | 1017.4 hPa | 0 mm | - | - | - |
| 1778064025 | 12.22° C | 99% | 1017.5 hPa | 0 mm | - | - | - |
| 1778062821 | 12.22° C | 99% | 1017.4 hPa | 0 mm | - | - | - |
| 1778062220 | 12.22° C | 99% | 1017.4 hPa | 0 mm | - | - | - |
| 1778057432 | 12.78° C | 99% | 1017.4 hPa | 0 mm | - | - | - |
| 1778055626 | 12.78° C | 99% | 1017.7 hPa | 0 mm | - | - | - |
| 1778055021 | 12.78° C | 99% | 1017.6 hPa | 0 mm | - | - | - |
| 1778053224 | 12.78° C | 99% | 1017.4 hPa | 0 mm | - | - | - |
| 1778052618 | 12.78° C | 99% | 1017.2 hPa | 0 mm | - | - | - |
| 1778052018 | 12.78° C | 99% | 1017.3 hPa | 0 mm | - | - | - |
| 1778051431 | 12.78° C | 99% | 1017.4 hPa | 0 mm | - | - | - |
| 1778049624 | 12.78° C | 99% | 1017.8 hPa | 0 mm | - | - | - |
| 1778048418 | 12.78° C | 99% | 1018 hPa | 0 mm | - | - | - |
| 1778047819 | 12.78° C | 99% | 1017.8 hPa | 0 mm | - | - | - |
| 1778046632 | 13.33° C | 99% | 1017.5 hPa | 0 mm | - | - | - |
| 1778046032 | 13.33° C | 99% | 1017.5 hPa | 0 mm | - | - | - |
| 1778045426 | 13.33° C | 99% | 1017.7 hPa | 0 mm | - | - | - |
| 1778044827 | 13.33° C | 99% | 1018 hPa | 0 mm | - | - | - |
| 1778043026 | 13.89° C | 98% | 1018.3 hPa | 0 mm | - | - | - |
| 1778041227 | 13.89° C | 98% | 1018.7 hPa | 0 mm | - | - | - |
| 1778040621 | 13.89° C | 98% | 1018.7 hPa | 0 mm | - | - | - |
| 1778040032 | 13.89° C | 97% | 1018.6 hPa | 0 mm | - | - | - |
* Rain latest hour (hover to see other rain measurements)
** Current wind speed in m/s (hover to see current wind gust speed)